Temp
-8 -8 -8 -8 -8 -9 -9 -9 -8 -8 -8 -9 -9 -9 -9 -10 -11 -11 -11 -11 -10 -9 -9 -9 -8 -8 -8 -7 -7 -7 -7 -7 -7 -7 -6 -6 -6 -6 -6 -5 -5 -5 -4 -4 -3 -3 -2 -2 -1 -1 -0 0 1 2 3 4 5 5 5 6 7 7 8 9 10 11 10 9 11 13 13 13 14 14
-8 -8 -8 -8 -9 -9 -9 -9 -8 -9 -9 -9 -9 -10 -10 -10 -10 -11 -11 -11 -10 -10 -9 -9 -9 -9 -8 -8 -8 -8 -8 -7 -7 -7 -7 -7 -6 -6 -6 -6 -5 -5 -5 -4 -4 -3 -3 -2 -2 -1 -1 0 1 2 3 4 5 5 5 6 6 7 7 8 10 11 10 9 10 12 13 13 14 14
-8 -8 -9 -9 -9 -9 -9 -9 -9 -9 -10 -10 -10 -10 -10 -10 -10 -11 -11 -12 -11 -10 -10 -9 -9 -9 -9 -9 -8 -8 -8 -8 -7 -7 -7 -7 -6 -6 -6 -6 -5 -5 -5 -4 -4 -3 -3 -2 -2 -1 -1 -0 0 1 2 3 4 5 5 6 6 6 7 7 9 10 10 9 9 12 13 13 14 14
-8 -9 -9 -9 -9 -9 -9 -9 -9 -10 -10 -10 -10 -10 -11 -11 -11 -11 -11 -11 -11 -10 -10 -10 -9 -9 -9 -9 -9 -8 -8 -8 -7 -7 -7 -7 -7 -6 -6 -6 -5 -5 -5 -4 -4 -3 -3 -2 -2 -1 -1 -0 0 1 2 3 4 4 5 6 6 6 6 7 8 9 9 9 9 11 12 13 13 14
-9 -9 -9 -9 -9 -9 -9 -9 -10 -10 -10 -10 -11 -11 -11 -11 -11 -11 -11 -11 -11 -10 -10 -10 -10 -10 -9 -9 -9 -8 -8 -8 -8 -7 -7 -7 -6 -6 -6 -6 -5 -5 -4 -4 -4 -3 -3 -3 -2 -2 -1 -1 0 1 1 2 3 4 5 5 6 6 6 6 7 8 8 8 9 9 11 12 13 13
-9 -9 -9 -9 -9 -9 -10 -10 -10 -10 -11 -11 -11 -11 -11 -11 -11 -11 -11 -11 -11 -11 -10 -10 -10 -9 -9 -9 -9 -8 -8 -8 -7 -7 -7 -7 -7 -6 -6 -6 -5 -5 -5 -4 -4 -3 -3 -3 -2 -2 -1 -1 -0 0 1 2 3 3 4 5 5 6 6 6 7 7 7 8 8 8 9 11 12 13
-9 -9 -9 -9 -10 -10 -11 -11 -11 -11 -11 -12 -12 -12 -12 -11 -11 -11 -11 -11 -11 -11 -10 -10 -9 -9 -9 -9 -8 -8 -8 -8 -8 -8 -7 -7 -7 -7 -6 -6 -6 -5 -5 -4 -4 -4 -3 -3 -2 -2 -1 -1 -0 0 1 1 2 3 4 5 5 5 6 6 6 7 7 7 8 8 8 9 11 12
-9 -9 -9 -10 -10 -11 -11 -12 -12 -12 -12 -12 -12 -12 -12 -12 -11 -11 -11 -11 -10 -10 -10 -10 -9 -9 -9 -9 -9 -9 -9 -8 -8 -8 -8 -7 -7 -7 -7 -6 -6 -5 -5 -4 -4 -4 -3 -3 -3 -2 -1 -1 -0 0 1 1 2 3 4 4 5 5 5 6 6 6 7 7 7 7 8 8 9 11
-9 -9 -10 -10 -11 -12 -12 -12 -13 -13 -13 -13 -13 -13 -12 -12 -12 -11 -11 -11 -10 -10 -10 -9 -9 -9 -9 -9 -9 -9 -9 -9 -8 -8 -8 -7 -7 -7 -7 -6 -6 -5 -5 -5 -4 -4 -4 -3 -3 -2 -2 -1 -0 0 1 1 2 2 3 4 4 5 5 5 6 6 6 7 7 7 8 8 8 9
-9 -10 -10 -11 -11 -12 -13 -13 -13 -13 -14 -13 -13 -13 -12 -12 -12 -11 -11 -10 -10 -10 -10 -10 -10 -10 -10 -9 -9 -9 -9 -8 -8 -8 -8 -7 -7 -7 -7 -6 -6 -5 -5 -4 -4 -4 -3 -3 -3 -2 -2 -1 -1 0 1 1 2 2 3 4 4 5 5 5 5 5 5 6 7 7 8 8 8 9
-9 -10 -10 -11 -12 -12 -13 -13 -14 -14 -14 -13 -13 -12 -12 -12 -11 -11 -11 -11 -11 -11 -11 -11 -10 -10 -10 -10 -9 -9 -9 -9 -8 -8 -8 -8 -7 -7 -7 -6 -6 -6 -5 -4 -4 -3 -3 -3 -2 -2 -1 -1 -0 0 1 1 2 2 2 3 4 4 5 5 5 5 5 6 6 7 7 8 8 9
-10 -10 -10 -11 -12 -12 -13 -13 -13 -13 -13 -13 -13 -12 -12 -11 -11 -11 -11 -11 -12 -12 -11 -11 -11 -10 -10 -10 -10 -9 -9 -9 -8 -8 -8 -8 -8 -8 -7 -7 -7 -6 -6 -5 -4 -3 -3 -2 -2 -1 -1 -0 0 1 1 1 2 2 2 3 4 4 5 5 5 5 5 6 6 7 7 8 8 8
-10 -10 -10 -11 -11 -12 -12 -13 -13 -13 -13 -13 -12 -12 -11 -11 -11 -11 -12 -12 -12 -12 -12 -11 -11 -11 -11 -10 -10 -10 -9 -9 -9 -9 -9 -9 -9 -9 -8 -8 -7 -7 -6 -5 -4 -3 -2 -2 -2 -1 -0 0 1 1 1 1 1 2 2 2 3 4 4 5 5 5 5 5 6 6 7 7 8 8
-10 -10 -11 -11 -11 -12 -12 -13 -13 -13 -13 -12 -12 -12 -11 -11 -11 -12 -13 -13 -13 -13 -12 -12 -12 -12 -12 -11 -11 -11 -10 -10 -10 -10 -10 -10 -9 -9 -9 -8 -8 -7 -6 -5 -5 -3 -2 -1 -0 -0 1 1 2 2 2 2 2 2 2 2 3 4 4 5 5 5 5 5 6 6 7 7 7 8
-10 -11 -11 -11 -12 -12 -13 -13 -14 -13 -13 -13 -12 -12 -11 -11 -12 -13 -13 -13 -13 -13 -13 -13 -12 -13 -12 -12 -12 -12 -11 -11 -11 -11 -11 -10 -10 -10 -10 -9 -8 -7 -6 -5 -4 -3 -1 0 1 1 1 2 2 2 2 3 3 3 3 3 3 4 4 5 5 5 5 5 5 6 6 7 7 8
-10 -11 -11 -11 -12 -13 -13 -14 -14 -14 -13 -13 -12 -12 -12 -12 -13 -13 -13 -13 -13 -13 -13 -13 -13 -13 -13 -13 -13 -13 -12 -12 -12 -12 -11 -11 -11 -10 -10 -10 -9 -8 -7 -5 -4 -2 -1 1 1 1 2 2 3 3 3 3 3 3 3 3 3 4 4 5 5 5 5 5 5 5 6 6 7 7
-11 -11 -11 -12 -12 -13 -14 -14 -14 -14 -13 -13 -12 -12 -13 -13 -14 -14 -14 -14 -14 -14 -14 -14 -14 -14 -14 -14 -14 -14 -13 -13 -13 -13 -12 -12 -11 -11 -10 -10 -9 -8 -7 -7 -6 -4 -1 1 1 1 2 3 3 4 4 4 4 4 3 3 4 4 5 5 5 5 5 5 5 5 5 6 6 7
-11 -11 -12 -12 -13 -14 -15 -15 -15 -14 -13 -12 -12 -13 -14 -14 -15 -15 -15 -15 -15 -15 -15 -15 -15 -15 -15 -15 -15 -14 -14 -14 -13 -13 -12 -12 -11 -11 -10 -10 -9 -9 -8 -7 -7 -6 -3 1 1 1 2 3 3 4 4 4 4 4 4 4 4 4 5 5 5 5 5 5 5 5 5 6 6 7
-12 -12 -12 -13 -14 -14 -15 -15 -14 -13 -12 -12 -13 -14 -14 -15 -15 -15 -15 -15 -15 -15 -16 -16 -16 -15 -15 -15 -15 -14 -14 -13 -13 -13 -12 -12 -12 -11 -11 -11 -10 -10 -9 -8 -8 -7 -4 -0 1 1 2 3 3 4 4 4 4 4 4 4 4 4 4 4 5 5 5 4 5 5 5 5 6 7
-12 -12 -12 -13 -14 -15 -16 -15 -14 -12 -12 -13 -14 -14 -15 -15 -15 -15 -15 -15 -15 -16 -16 -16 -15 -15 -15 -14 -14 -13 -13 -13 -13 -13 -13 -12 -12 -12 -11 -11 -10 -9 -9 -8 -7 -7 -5 -1 1 2 2 3 4 4 4 4 4 4 4 3 4 4 4 4 4 5 4 4 4 5 5 5 6 6
-12 -12 -13 -14 -15 -16 -16 -15 -13 -12 -13 -13 -14 -15 -15 -16 -15 -15 -16 -16 -16 -16 -16 -16 -16 -16 -15 -15 -15 -14 -14 -14 -13 -13 -13 -13 -12 -12 -11 -11 -10 -9 -8 -7 -6 -6 -4 -0 2 2 2 3 3 4 4 4 3 3 3 3 3 4 4 4 4 4 4 4 4 4 5 5 6 6
-13 -13 -13 -14 -15 -16 -15 -14 -13 -13 -13 -14 -14 -15 -16 -16 -15 -16 -16 -16 -17 -17 -17 -17 -17 -17 -16 -16 -16 -16 -16 -15 -14 -14 -14 -14 -13 -13 -11 -10 -8 -7 -5 -4 -4 -3 -1 1 2 2 2 2 3 3 3 3 3 3 3 3 3 4 4 4 4 4 4 4 4 5 5 5 6 6
-13 -14 -14 -15 -15 -15 -15 -14 -13 -13 -14 -14 -15 -16 -16 -15 -15 -16 -16 -17 -17 -18 -17 -17 -17 -17 -17 -17 -17 -17 -17 -16 -16 -15 -15 -15 -14 -13 -12 -10 -8 -5 -3 -3 -3 -1 1 1 1 2 2 1 2 2 2 2 2 2 3 3 3 3 4 4 4 4 4 4 4 4 5 5 5 5
-14 -14 -14 -15 -16 -16 -15 -14 -14 -14 -14 -14 -15 -16 -16 -15 -15 -16 -16 -17 -18 -18 -18 -17 -17 -17 -17 -17 -17 -17 -17 -17 -17 -16 -16 -15 -15 -14 -12 -11 -8 -5 -4 -5 -5 -2 0 1 1 2 2 2 2 2 1 1 1 2 2 2 2 3 3 3 3 4 4 4 4 4 5 5 5 4
-15 -15 -15 -16 -17 -16 -15 -14 -14 -14 -14 -15 -16 -16 -15 -15 -15 -16 -17 -18 -18 -18 -18 -17 -17 -17 -17 -18 -18 -17 -17 -17 -17 -17 -16 -15 -15 -14 -12 -10 -8 -6 -6 -6 -6 -4 -2 1 1 1 2 3 3 2 1 1 1 1 1 2 2 2 3 3 3 3 4 4 4 4 4 4 4 4
-15 -16 -16 -17 -17 -16 -15 -15 -15 -15 -15 -16 -16 -16 -15 -15 -16 -17 -18 -19 -18 -18 -18 -17 -17 -18 -18 -18 -18 -17 -17 -17 -17 -16 -15 -14 -13 -12 -11 -10 -8 -8 -8 -8 -6 -6 -4 -1 1 1 1 2 3 2 1 1 1 1 1 1 2 2 2 2 3 3 3 4 4 4 4 4 4 4
-16 -17 -17 -17 -17 -16 -15 -15 -16 -16 -16 -16 -16 -16 -16 -17 -18 -19 -19 -19 -19 -18 -18 -18 -18 -18 -18 -18 -18 -18 -17 -17 -17 -16 -15 -14 -12 -11 -10 -10 -9 -10 -10 -9 -7 -6 -5 -3 -0 1 1 2 2 2 2 2 1 1 1 1 2 2 2 2 3 3 3 3 3 3 3 4 4 4
-17 -17 -17 -17 -17 -16 -16 -16 -16 -16 -17 -17 -17 -17 -17 -18 -19 -19 -19 -19 -19 -19 -18 -18 -18 -18 -18 -18 -18 -18 -17 -17 -17 -16 -16 -14 -13 -11 -11 -10 -10 -10 -10 -9 -8 -6 -5 -4 -3 -1 0 1 2 2 2 2 1 1 1 1 2 2 2 2 2 3 3 3 3 3 3 3 3 4
-17 -17 -17 -17 -16 -16 -16 -16 -16 -16 -17 -17 -18 -18 -18 -19 -20 -20 -19 -19 -19 -19 -19 -19 -19 -19 -19 -19 -18 -18 -17 -17 -17 -17 -16 -14 -13 -12 -11 -11 -11 -10 -9 -9 -8 -7 -6 -6 -4 -3 -1 -0 1 2 3 2 1 1 1 1 1 2 2 2 2 2 3 3 3 3 3 3 3 3
-17 -17 -16 -16 -16 -16 -16 -17 -17 -17 -17 -18 -18 -18 -19 -19 -20 -20 -20 -20 -20 -20 -20 -20 -19 -19 -19 -19 -18 -18 -17 -17 -17 -17 -16 -15 -13 -13 -13 -12 -11 -10 -10 -9 -9 -8 -7 -6 -5 -4 -3 -1 0 1 2 2 2 1 1 1 1 1 2 2 2 3 2 3 3 3 3 3 3 3
-16 -16 -16 -16 -16 -15 -16 -16 -17 -18 -18 -19 -19 -19 -19 -19 -20 -20 -20 -20 -20 -20 -20 -20 -20 -19 -19 -19 -18 -18 -17 -17 -17 -17 -17 -16 -15 -14 -14 -12 -12 -11 -10 -9 -9 -8 -8 -7 -5 -4 -3 -2 -0 0 1 2 1 1 1 1 1 1 1 2 2 2 2 2 2 3 3 3 3 3
-16 -16 -16 -16 -16 -16 -16 -17 -18 -18 -19 -19 -19 -20 -19 -19 -20 -20 -20 -21 -21 -21 -20 -20 -20 -20 -20 -19 -19 -18 -18 -18 -18 -17 -17 -16 -15 -15 -14 -13 -13 -13 -11 -10 -9 -8 -7 -6 -5 -5 -4 -2 -1 -0 1 1 0 0 0 0 1 1 1 1 1 2 2 2 2 2 2 3 3 3
-16 -16 -16 -17 -17 -17 -18 -18 -19 -19 -19 -19 -20 -20 -20 -20 -20 -21 -21 -21 -22 -21 -21 -21 -20 -20 -20 -20 -19 -19 -18 -18 -18 -18 -17 -17 -16 -15 -15 -14 -14 -14 -13 -13 -13 -11 -9 -7 -6 -5 -4 -3 -2 -2 -1 -2 -2 -2 -1 -1 -0 0 1 1 1 1 2 2 2 2 2 2 3 3
-17 -17 -17 -17 -18 -18 -19 -19 -19 -19 -20 -20 -20 -20 -20 -20 -21 -21 -21 -22 -22 -22 -21 -21 -21 -21 -21 -20 -20 -20 -19 -19 -18 -18 -18 -17 -17 -16 -15 -15 -15 -14 -14 -14 -14 -14 -13 -11 -8 -5 -4 -4 -4 -4 -4 -5 -5 -5 -4 -3 -2 -1 -1 0 1 1 1 1 2 1 1 2 2 2
-17 -17 -17 -17 -18 -19 -19 -19 -19 -20 -20 -20 -21 -20 -20 -21 -21 -21 -22 -22 -22 -22 -21 -21 -21 -21 -21 -21 -20 -20 -19 -19 -19 -19 -18 -18 -18 -17 -16 -16 -15 -15 -14 -14 -15 -15 -15 -15 -12 -9 -6 -4 -4 -4 -5 -6 -7 -7 -6 -6 -5 -4 -3 -1 -0 0 1 1 1 1 1 1 1 2
-17 -17 -17 -17 -18 -19 -19 -19 -20 -20 -20 -21 -21 -21 -21 -21 -21 -22 -22 -22 -22 -22 -21 -21 -21 -22 -21 -21 -21 -20 -20 -19 -19 -19 -19 -19 -18 -18 -17 -16 -16 -16 -15 -15 -15 -15 -15 -16 -15 -13 -10 -7 -5 -5 -5 -6 -7 -8 -8 -7 -7 -6 -4 -2 -1 -0 0 0 0 1 1 1 1 1
-17 -17 -18 -18 -19 -20 -19 -19 -20 -20 -20 -21 -21 -21 -21 -21 -22 -22 -22 -22 -22 -22 -22 -21 -22 -22 -22 -22 -21 -21 -20 -20 -20 -20 -20 -19 -19 -19 -18 -17 -17 -16 -15 -15 -15 -15 -16 -16 -16 -15 -14 -11 -9 -7 -7 -7 -7 -7 -8 -9 -8 -6 -5 -3 -2 -1 -0 0 0 0 1 1 1 1
-17 -17 -18 -18 -19 -20 -20 -20 -20 -20 -21 -21 -21 -21 -22 -22 -22 -22 -22 -22 -22 -22 -22 -22 -22 -22 -22 -22 -22 -21 -21 -20 -20 -20 -20 -20 -19 -19 -19 -18 -17 -17 -16 -16 -15 -16 -16 -16 -16 -16 -16 -15 -13 -11 -10 -10 -9 -7 -7 -8 -8 -6 -5 -4 -2 -1 -0 -0 0 0 1 1 1 1
-17 -18 -18 -18 -19 -19 -20 -20 -20 -20 -21 -21 -21 -22 -22 -22 -22 -22 -22 -22 -23 -22 -22 -22 -22 -22 -22 -22 -22 -21 -21 -21 -21 -21 -21 -21 -20 -20 -19 -19 -18 -18 -17 -16 -16 -16 -16 -16 -16 -16 -16 -16 -15 -14 -13 -13 -12 -9 -7 -8 -8 -7 -6 -5 -4 -2 -1 -0 -0 -0 0 0 0 1
-17 -18 -18 -18 -19 -19 -19 -20 -20 -21 -21 -21 -21 -22 -22 -22 -22 -22 -22 -22 -22 -22 -22 -22 -22 -22 -22 -22 -22 -22 -21 -21 -21 -22 -22 -21 -20 -20 -20 -19 -19 -18 -18 -17 -17 -17 -17 -17 -16 -16 -16 -15 -14 -13 -14 -13 -12 -10 -8 -7 -7 -7 -7 -7 -6 -4 -2 -1 -1 -1 -0 -0 -0 0
-17 -17 -17 -17 -18 -18 -19 -19 -20 -21 -21 -21 -21 -22 -22 -22 -22 -22 -22 -22 -22 -22 -22 -22 -22 -22 -22 -22 -22 -22 -22 -22 -22 -22 -22 -21 -21 -20 -20 -20 -20 -19 -18 -18 -18 -18 -17 -17 -16 -15 -15 -14 -13 -12 -12 -12 -11 -10 -9 -8 -6 -6 -6 -6 -6 -5 -3 -1 -1 -0 -0 -0 -0 -0
-17 -18 -17 -17 -17 -18 -18 -18 -19 -20 -21 -21 -21 -21 -21 -21 -21 -21 -22 -22 -22 -22 -22 -22 -22 -22 -22 -22 -22 -22 -22 -22 -22 -22 -22 -22 -21 -21 -20 -21 -20 -20 -19 -19 -19 -18 -18 -17 -16 -15 -15 -15 -14 -12 -12 -12 -11 -10 -10 -10 -8 -6 -4 -4 -5 -4 -3 -2 -2 -1 -1 -0 0 0
-17 -17 -17 -17 -17 -18 -18 -18 -18 -19 -20 -20 -20 -20 -21 -21 -21 -21 -22 -22 -22 -22 -22 -23 -23 -23 -23 -22 -22 -22 -22 -22 -22 -22 -22 -22 -21 -21 -21 -21 -21 -20 -20 -20 -19 -19 -18 -17 -16 -15 -15 -15 -15 -14 -13 -13 -12 -11 -11 -11 -11 -9 -6 -4 -3 -3 -3 -3 -3 -3 -2 -2 -1 -0
-16 -17 -17 -17 -17 -17 -17 -18 -18 -18 -19 -19 -19 -20 -20 -20 -21 -21 -22 -22 -22 -22 -22 -23 -23 -23 -23 -23 -22 -22 -22 -22 -22 -22 -22 -22 -22 -21 -21 -21 -21 -21 -20 -20 -20 -19 -18 -18 -17 -16 -16 -16 -16 -15 -14 -13 -12 -11 -11 -12 -13 -12 -10 -8 -5 -4 -3 -3 -3 -3 -3 -2 -2 -1
-16 -16 -16 -16 -17 -17 -17 -17 -18 -18 -18 -19 -19 -19 -20 -20 -20 -21 -22 -22 -22 -22 -22 -23 -23 -23 -23 -23 -22 -22 -23 -23 -23 -22 -23 -23 -22 -22 -22 -22 -22 -21 -21 -21 -21 -20 -19 -18 -18 -17 -17 -17 -17 -16 -15 -14 -13 -12 -13 -14 -14 -13 -13 -13 -11 -8 -6 -5 -4 -3 -3 -2 -1 -1
Height
727 725 723 721 720 718 716 714 712 710 708 706 704 701 699 696 690 685 677 669 667 667 664 661 657 655 654 651 648 647 643 641 640 637 634 632 629 628 627 626 625 624 623 623 622 622 621 621 621 621 621 621 621 621 621 622 624 625 628 630 632 632 631 631 633 635 635 636 638 641 644 646 647 648
725 723 722 720 718 716 714 712 710 708 706 704 702 700 698 696 693 689 681 668 663 666 663 660 658 654 653 651 647 645 642 639 638 635 632 630 627 625 624 623 622 621 620 619 619 619 619 619 619 618 618 619 619 619 620 621 622 623 625 627 629 630 631 631 630 632 634 634 634 638 642 644 645 646
723 721 720 718 716 714 712 710 708 707 705 703 701 698 696 695 692 689 686 671 660 664 663 658 657 655 651 650 646 643 640 637 635 633 630 627 625 622 620 619 618 617 616 615 616 616 616 616 616 616 616 617 617 617 619 619 620 621 622 624 626 627 629 631 629 630 634 635 634 636 639 641 643 644
721 719 718 716 714 712 710 708 706 705 703 701 699 697 694 693 690 687 685 674 659 661 664 658 655 654 650 647 645 641 638 635 633 630 628 625 622 620 617 615 614 613 612 612 612 613 613 613 613 614 614 614 615 616 617 618 618 619 620 622 623 624 627 629 628 630 634 635 635 635 636 638 640 642
719 718 716 714 712 710 708 706 705 703 701 699 697 695 692 690 688 685 682 675 661 657 661 659 653 652 649 644 642 640 635 632 630 627 625 623 620 617 614 612 610 609 609 608 607 608 609 610 610 611 611 612 612 613 615 616 617 617 618 620 621 622 625 627 627 631 634 635 636 636 635 636 638 639
717 715 714 712 710 708 706 704 703 700 699 698 695 693 691 687 686 683 680 675 665 655 655 656 652 649 647 642 638 637 634 630 628 624 622 620 617 615 612 609 607 606 605 604 603 603 605 606 606 607 608 609 610 611 612 613 614 615 615 617 619 621 623 625 627 632 635 635 636 637 636 636 636 637
715 713 711 710 708 706 704 702 701 699 697 696 693 691 689 685 682 681 678 673 667 657 651 651 649 645 643 639 636 634 632 628 626 622 619 617 615 612 610 607 604 602 601 600 599 599 599 601 602 603 604 605 606 607 608 609 610 611 612 614 616 618 621 623 626 631 635 635 635 635 636 636 635 635
712 711 709 708 706 705 703 700 698 697 695 694 692 689 686 684 679 677 675 671 667 659 649 646 646 643 640 637 634 632 629 626 624 620 617 614 612 609 607 604 601 599 598 597 595 594 594 595 597 598 600 601 602 603 604 605 606 607 609 611 613 615 618 620 623 628 631 632 632 632 634 635 636 634
710 709 707 706 704 702 700 698 696 695 694 692 690 687 683 680 676 673 670 667 664 659 650 643 641 641 638 634 632 630 627 623 620 617 615 612 609 606 604 601 598 596 594 593 591 589 588 589 591 593 595 597 598 600 601 602 603 604 606 608 610 612 614 617 622 625 627 628 628 629 631 634 635 634
708 707 705 704 702 700 698 697 694 693 692 690 687 684 680 676 673 669 666 663 660 656 650 644 639 637 635 632 629 627 625 621 618 615 612 609 607 604 601 598 596 594 592 589 587 586 584 584 585 587 589 592 594 596 598 599 600 601 603 606 607 609 611 615 619 623 624 625 625 627 630 633 634 633
705 704 703 701 700 698 696 694 692 691 689 687 684 681 677 673 670 666 663 660 657 653 649 644 639 635 632 629 626 624 623 620 616 614 610 606 604 602 599 596 593 591 589 586 584 582 580 580 580 581 583 586 589 592 594 596 597 599 601 603 605 607 610 613 617 620 623 623 625 627 630 632 633 632
703 702 701 699 697 696 694 692 691 689 687 685 681 677 674 670 666 663 660 657 655 651 646 641 637 633 629 627 624 622 620 618 614 613 610 605 602 600 598 595 592 589 587 584 582 579 577 576 576 577 578 579 582 586 589 592 594 596 598 600 603 605 608 611 614 617 620 621 623 625 627 629 630 630
701 700 698 697 695 693 692 690 689 687 685 683 679 675 671 667 663 660 658 656 653 648 643 639 636 632 628 625 623 620 618 616 613 611 609 605 602 600 596 592 590 588 585 582 580 577 575 573 572 572 573 574 576 580 583 586 589 592 594 596 598 601 604 608 611 613 616 617 619 621 623 625 627 627
699 698 696 695 693 691 689 688 686 685 683 680 677 673 669 665 661 658 655 653 650 646 641 637 635 631 626 623 622 619 616 615 613 610 608 604 601 598 594 589 586 585 583 580 577 574 572 570 568 568 569 570 572 575 577 579 583 586 589 592 594 596 600 603 606 609 611 613 615 617 619 621 622 624
697 695 694 693 691 689 687 685 683 682 680 677 674 670 667 664 661 658 654 651 647 644 639 635 633 630 624 622 621 618 615 614 612 609 607 603 600 597 593 587 583 581 581 578 575 571 569 568 566 565 565 567 569 571 572 574 577 580 583 587 589 592 595 599 601 604 607 609 611 613 615 616 619 622
695 693 692 690 689 687 685 684 681 679 675 672 670 667 664 661 659 657 653 649 645 642 638 633 631 629 624 620 619 617 614 612 609 607 605 602 599 596 592 587 581 578 578 578 573 568 565 564 563 562 562 564 566 568 569 570 573 575 579 582 585 589 592 595 597 600 602 605 607 609 610 613 615 618
694 692 690 689 687 685 684 682 679 676 671 668 666 664 661 658 655 653 651 648 644 640 637 632 629 627 624 620 616 615 613 610 607 604 602 599 597 593 588 585 580 576 576 577 573 567 562 561 561 560 560 562 564 565 566 568 570 573 575 578 581 585 588 591 593 596 599 601 604 605 607 610 612 615
692 691 689 687 685 683 682 680 677 673 670 667 665 661 658 654 652 650 647 644 641 638 635 631 627 624 622 617 613 611 611 607 603 600 597 595 593 589 585 583 579 573 572 575 575 568 561 557 557 557 557 559 560 561 563 565 567 570 572 574 577 580 584 587 590 593 596 599 601 603 605 607 610 613
691 689 687 686 684 682 680 678 675 672 669 666 663 660 656 652 649 647 644 641 638 635 633 630 625 621 619 614 610 607 605 602 598 595 593 590 589 586 582 579 575 568 566 571 574 568 559 554 553 553 555 557 558 558 561 563 564 567 569 571 574 576 579 583 586 589 593 595 597 600 601 604 607 610
689 688 686 685 683 681 679 676 674 672 669 665 662 659 655 651 647 644 641 639 636 633 629 626 622 618 614 610 606 603 600 597 594 591 589 586 585 583 579 574 570 563 560 564 568 565 558 552 550 551 552 554 555 555 557 559 562 564 566 568 571 573 576 579 582 585 588 591 593 596 598 600 603 606
688 686 685 683 681 679 677 675 673 671 667 664 662 658 654 650 646 642 638 635 633 630 627 624 620 615 611 607 603 599 596 593 591 588 585 583 581 579 574 570 565 558 554 556 559 559 554 548 547 549 551 552 553 553 555 556 559 561 563 565 568 570 572 575 578 581 584 587 590 592 595 597 600 604
686 684 683 682 680 678 676 674 671 669 667 664 661 658 655 650 646 641 637 632 628 625 623 620 616 613 609 604 600 596 592 590 588 586 583 580 579 576 571 566 561 554 550 550 551 551 548 543 543 547 550 551 552 552 553 555 557 559 561 563 565 567 569 572 575 578 581 584 587 589 592 595 598 601
684 683 681 680 679 677 675 673 670 668 666 664 661 659 655 651 646 642 639 634 628 623 619 616 612 609 606 602 598 594 591 588 586 584 581 578 576 574 569 565 561 553 547 544 544 544 542 540 541 545 548 550 551 552 553 554 556 557 559 560 563 565 567 569 572 575 578 581 584 587 589 592 595 598
682 681 679 678 677 676 674 671 669 667 665 663 660 658 655 651 647 643 639 635 631 625 619 615 611 607 603 599 596 592 589 586 583 580 578 575 573 570 567 564 559 552 545 542 542 541 539 540 541 543 545 547 549 550 552 553 554 556 557 558 560 562 565 568 571 573 576 579 581 583 586 588 591 593
681 679 678 677 676 674 672 670 668 666 664 662 660 658 655 652 648 644 639 635 630 625 620 615 610 605 601 597 594 590 587 583 580 577 574 570 568 566 564 560 555 550 545 542 541 540 540 540 540 542 543 545 546 548 551 552 553 554 555 556 558 560 563 566 568 571 574 576 578 580 582 585 587 589
680 678 677 675 674 673 671 669 667 665 663 661 659 657 654 651 647 643 639 634 630 626 621 616 611 605 600 596 592 588 585 581 577 573 569 566 564 562 560 557 554 551 546 542 540 541 541 540 539 540 542 544 544 546 548 550 551 552 553 554 556 558 560 563 566 568 571 573 575 577 579 581 583 585
679 677 675 674 673 672 670 668 666 664 662 660 658 656 653 649 645 641 638 635 631 627 622 618 613 608 603 598 593 589 585 580 577 573 569 566 563 560 557 556 554 551 547 544 542 541 541 540 539 540 541 543 544 545 546 548 549 550 552 553 554 556 558 561 563 565 567 569 571 573 576 578 580 581
677 676 674 673 672 671 669 667 665 663 661 659 657 654 651 648 643 640 638 635 632 628 624 620 615 611 607 602 597 592 588 583 578 574 570 567 564 560 556 554 552 549 545 543 541 540 540 539 539 540 541 542 543 544 545 546 547 549 550 552 554 555 557 559 560 562 564 566 568 570 572 574 576 578
676 675 673 672 671 669 668 666 664 662 660 658 656 653 650 647 643 641 639 636 633 630 627 623 619 614 610 605 600 595 590 584 579 573 569 566 562 558 555 553 551 548 545 543 542 541 541 540 540 541 541 541 542 542 543 544 546 548 549 550 552 553 555 557 559 560 562 564 565 567 569 570 572 574
675 674 672 671 670 668 667 665 663 662 660 658 655 652 649 647 644 641 639 637 634 632 629 626 622 617 612 607 602 596 590 585 580 575 571 567 563 559 556 553 551 550 548 546 544 543 542 541 541 541 541 541 541 542 542 543 545 547 548 549 550 552 554 555 557 558 560 562 563 565 566 568 570 572
674 673 672 671 669 668 667 665 664 662 660 658 655 652 649 647 645 643 641 638 636 633 630 627 624 619 614 609 603 597 592 588 584 580 576 572 568 563 558 555 554 552 550 548 546 545 543 542 541 541 541 541 541 541 542 543 544 546 547 548 549 551 552 553 555 557 558 560 562 564 565 567 569 571
674 672 671 670 669 668 666 664 663 662 660 658 656 653 651 648 646 644 641 638 636 633 631 627 624 619 615 610 606 601 597 593 589 584 580 577 574 568 563 560 559 556 551 548 545 544 543 542 542 541 541 540 540 541 542 544 545 545 546 547 548 549 550 552 554 555 557 559 561 563 565 566 568 570
673 672 671 670 669 668 667 665 664 662 660 659 657 655 652 649 646 644 641 639 636 633 631 628 624 620 616 612 608 605 601 598 594 590 586 582 578 574 570 568 568 565 560 557 553 549 546 544 544 544 543 541 540 541 542 545 546 547 546 547 548 549 550 551 552 554 555 557 559 561 563 565 566 567
672 671 671 670 669 668 668 666 665 664 662 660 658 656 654 651 648 645 643 641 638 635 632 629 626 623 619 615 612 608 605 601 597 594 591 587 583 579 576 575 573 571 568 566 563 558 554 550 547 546 545 543 543 544 545 548 549 549 548 548 548 549 550 550 551 552 553 554 556 558 561 562 563 565
672 671 671 670 670 669 669 667 666 665 664 662 660 658 655 653 651 648 645 643 640 637 635 632 629 626 623 620 616 612 609 606 602 598 594 591 588 586 584 582 580 577 573 571 569 566 563 558 554 551 549 547 546 547 549 551 552 552 551 550 550 550 549 549 549 550 550 552 553 555 557 559 560 561
672 671 671 671 670 670 669 668 667 666 665 664 662 660 658 655 653 651 648 646 644 641 638 635 632 629 627 624 620 617 614 610 606 602 599 596 594 592 590 588 586 583 579 577 575 572 569 567 564 561 558 554 551 552 555 556 556 556 555 553 552 551 550 548 548 548 548 549 550 551 553 555 556 557
671 671 670 671 670 670 670 669 668 667 666 665 663 662 660 658 656 654 651 649 646 643 641 639 636 633 630 627 624 621 618 615 612 608 605 602 600 597 594 592 590 587 585 582 580 578 575 573 571 570 568 565 562 561 561 559 558 558 558 556 554 553 551 548 547 546 547 547 548 549 551 552 554 555
671 670 670 670 670 670 670 669 668 667 666 665 664 662 661 659 657 655 653 651 648 645 643 641 639 636 634 631 627 624 622 619 616 613 610 608 605 602 600 598 595 592 589 587 585 582 580 578 577 576 577 576 574 572 569 564 561 559 559 558 557 554 552 550 548 547 546 546 547 548 550 551 553 554
670 670 669 669 670 670 669 669 669 668 667 666 665 663 662 660 658 657 655 653 651 648 646 644 642 639 637 634 631 629 626 624 621 618 616 614 611 609 607 603 600 597 593 590 588 585 583 582 581 581 581 581 580 578 576 573 568 562 560 560 560 557 554 552 550 549 547 547 548 549 549 550 551 553
669 669 669 669 669 669 669 669 668 668 667 666 665 664 662 661 659 658 656 655 653 650 649 647 645 642 640 637 635 632 630 628 626 624 622 619 616 614 611 609 605 602 598 595 593 590 588 587 587 585 584 582 579 577 576 574 569 564 561 560 559 558 557 555 553 551 550 549 549 549 550 550 551 551
668 668 668 668 668 668 668 668 668 667 667 666 665 664 663 662 660 659 658 656 654 652 651 649 647 645 642 640 638 636 634 631 630 627 625 623 620 618 615 612 609 606 603 601 599 597 595 594 591 588 585 582 577 574 574 573 570 567 563 560 558 557 556 555 553 552 551 550 549 549 550 550 550 550
666 667 667 667 667 668 667 668 667 667 666 666 665 664 663 662 661 660 659 657 655 654 652 651 649 647 645 643 641 639 637 635 633 631 628 626 623 621 618 616 613 611 610 608 606 603 600 597 592 588 585 582 578 577 578 578 575 571 568 563 558 555 554 553 553 552 551 550 550 550 549 549 548 548
665 666 666 666 666 667 667 667 667 666 666 665 664 664 663 662 662 661 659 658 656 655 653 652 651 649 647 646 644 642 640 638 636 634 631 629 627 625 622 620 618 617 615 612 610 606 602 597 593 589 586 584 582 582 582 581 579 576 573 568 563 558 555 553 552 551 551 551 551 550 550 549 547 546
663 664 665 665 665 666 666 666 666 666 665 665 664 664 663 662 662 661 660 659 657 656 654 653 652 650 649 647 646 644 643 641 639 637 635 632 630 629 626 624 622 619 617 614 610 606 603 600 597 593 590 589 588 587 585 583 581 579 577 573 569 563 559 555 552 551 550 550 550 549 549 548 546 545
662 663 663 664 664 665 665 665 665 665 665 665 664 664 663 662 662 661 661 660 658 657 656 655 653 652 650 649 647 646 645 643 641 639 637 635 633 631 629 627 624 621 619 616 612 609 605 602 599 597 595 594 593 591 589 587 584 582 580 577 573 569 566 563 559 556 554 552 550 549 547 546 545 544
Wind_Speed
19 19 19 19 19 20 20 21 21 22 23 22 23 23 20 16 13 12 14 13 12 17 20 19 19 19 19 21 23 23 24 25 25 26 26 26 26 25 25 26 26 28 28 27 25 25 24 23 23 24 23 22 21 21 21 22 22 22 23 25 29 32 33 32 29 25 26 29 28 40 44 41 41 44
18 19 19 19 20 20 20 21 21 21 22 23 23 23 22 21 16 11 13 14 12 15 19 20 20 22 23 24 25 25 26 26 26 26 27 27 27 27 27 28 28 29 30 29 27 26 25 24 24 24 24 24 22 22 22 22 23 23 23 23 24 27 30 32 31 28 27 28 24 35 42 38 38 39
18 19 20 19 20 20 21 22 22 22 21 22 23 23 22 22 22 17 13 13 16 17 20 23 24 26 27 26 27 27 27 27 27 27 26 27 27 28 28 28 28 28 29 29 28 26 25 24 23 24 25 24 23 23 22 23 22 23 24 23 23 23 25 29 30 32 31 27 23 29 38 35 36 36
19 19 19 20 20 20 20 21 21 21 21 22 22 23 23 22 23 23 17 13 19 24 25 27 28 26 28 28 27 28 28 27 26 26 26 27 27 28 27 27 26 26 27 28 28 26 24 24 23 23 24 25 24 23 23 23 23 23 24 23 22 22 23 25 26 31 34 30 25 24 33 33 34 35
18 19 20 20 20 19 18 20 21 21 21 22 21 22 22 22 22 23 20 15 17 24 26 26 28 28 28 29 27 27 28 27 26 26 26 26 26 27 26 26 26 26 26 27 28 27 25 24 24 23 24 25 25 24 24 24 24 23 24 24 23 22 22 23 24 27 32 31 28 23 25 30 32 33
18 19 20 20 19 18 18 19 20 20 20 21 21 21 21 23 23 23 24 19 15 19 25 27 29 28 27 28 27 26 27 27 27 27 27 26 26 26 26 26 26 25 26 27 29 29 27 25 25 24 25 25 25 25 24 24 25 24 24 24 24 23 23 23 24 25 27 29 29 25 19 24 30 33
19 20 20 19 18 17 17 18 18 18 19 19 20 21 21 23 24 24 26 23 17 17 23 27 29 27 27 28 27 27 27 27 28 28 28 27 26 26 25 26 27 26 26 27 28 30 29 27 26 25 25 26 26 26 25 25 25 25 25 25 24 23 24 24 24 26 27 25 25 24 20 18 24 30
20 20 18 17 17 16 17 18 17 17 18 18 19 21 22 23 25 26 26 25 24 21 21 25 29 28 27 27 27 27 27 27 27 27 26 26 25 26 26 26 27 26 27 28 29 31 31 29 27 26 26 26 26 26 25 25 27 27 27 27 26 25 24 24 24 27 28 24 21 21 20 19 19 23
20 18 17 17 16 16 16 16 16 17 18 19 21 22 24 25 26 26 26 26 28 26 23 26 30 28 28 28 27 26 26 26 25 24 24 24 24 25 25 26 26 26 26 27 29 31 34 33 30 28 27 26 26 26 25 26 27 29 29 28 27 27 26 25 25 26 27 26 23 21 20 21 21 19
18 16 17 17 16 16 16 16 17 18 18 21 23 25 26 27 26 26 27 27 27 27 27 29 30 28 27 27 25 24 23 23 23 23 24 24 24 24 24 25 24 24 24 25 26 28 30 31 31 31 30 28 27 26 26 27 27 29 31 30 28 28 28 27 26 25 26 26 24 23 23 24 23 20
16 16 16 16 16 17 17 18 18 18 20 21 24 26 26 26 27 27 26 25 24 26 28 27 26 26 25 24 23 22 22 22 23 22 21 20 21 21 22 22 22 22 22 24 25 27 30 30 30 30 31 32 31 28 27 28 28 29 31 32 31 30 30 30 29 27 27 27 27 27 27 26 25 23
14 15 16 16 16 17 18 19 18 18 20 22 24 26 25 25 26 23 20 20 22 24 25 22 23 24 22 22 22 21 20 18 17 19 18 17 20 21 21 22 23 23 23 24 24 26 29 32 31 29 29 32 34 33 30 29 29 30 31 32 33 33 32 31 31 30 29 29 29 30 30 29 27 26
13 14 14 15 16 17 18 19 19 19 21 24 26 26 26 25 22 15 14 18 21 21 19 17 19 19 17 19 19 17 17 15 15 19 20 20 22 23 23 24 24 23 22 23 24 24 25 28 29 28 27 28 31 33 34 33 32 31 31 32 34 35 35 34 32 31 31 30 30 31 31 30 29 28
14 13 14 15 16 17 18 17 17 19 21 25 27 28 27 26 21 15 15 19 20 19 15 15 16 13 11 16 18 18 19 19 19 21 20 19 21 20 19 21 22 22 21 21 23 25 25 25 25 26 26 26 26 28 32 35 34 33 32 33 34 35 36 36 35 32 31 31 31 31 30 30 29 29
13 14 14 15 15 16 15 16 18 20 24 27 28 28 28 25 22 19 19 20 21 19 17 17 17 12 11 17 20 20 21 20 19 20 20 19 18 14 11 12 15 18 19 19 22 24 25 25 23 24 25 25 24 25 29 33 36 36 34 34 34 35 35 36 35 33 32 31 31 31 30 29 29 29
13 14 15 15 15 14 14 15 18 23 29 30 28 28 27 24 21 20 21 22 22 21 18 18 18 16 16 20 21 20 20 20 20 21 20 20 18 15 11 9 14 19 18 16 19 22 23 24 23 22 24 25 25 25 27 30 33 35 36 35 34 35 35 35 35 34 33 32 32 32 31 30 30 30
13 14 15 16 15 14 14 15 20 27 31 30 26 26 26 23 20 20 21 22 22 21 20 19 20 20 20 22 22 21 21 22 23 21 20 21 21 19 16 14 20 26 22 15 15 18 21 24 23 22 23 24 25 27 27 28 29 31 35 36 35 35 35 35 34 33 33 33 32 32 31 30 30 30
13 14 14 15 16 15 14 16 22 28 29 27 25 25 24 22 21 21 22 21 19 19 19 20 22 23 23 25 27 26 26 27 26 23 21 22 22 22 23 23 27 31 26 17 13 14 18 24 22 21 23 23 24 26 25 25 26 27 31 34 35 35 35 34 34 34 34 34 34 33 32 31 30 30
13 13 13 14 15 15 14 17 22 26 27 25 24 24 23 23 22 21 20 20 19 19 19 20 23 25 26 28 30 29 28 27 26 24 23 24 24 24 25 24 27 33 31 22 13 9 17 23 21 19 23 23 22 24 24 24 26 26 27 31 34 35 34 33 33 34 34 35 34 34 33 31 30 30
13 13 12 13 15 14 14 18 22 25 25 24 22 22 22 23 23 22 20 20 21 22 21 21 23 25 26 27 27 27 25 23 22 22 20 21 21 19 16 14 19 27 28 22 18 11 16 23 22 18 20 22 20 21 22 22 25 26 26 28 31 33 33 32 32 33 34 34 34 34 33 32 31 30
13 12 12 13 14 13 15 19 23 24 24 22 20 20 21 23 25 24 24 26 25 21 21 22 23 24 25 24 23 24 22 20 19 16 13 15 15 12 9 9 11 18 22 22 24 18 13 19 22 17 17 21 19 18 21 22 23 23 25 28 30 31 32 31 31 32 33 34 34 34 33 32 31 30
13 12 11 12 12 13 16 20 22 23 22 20 18 18 20 23 25 24 27 32 31 26 25 25 24 23 23 22 22 21 19 18 16 13 12 14 13 8 7 7 7 12 17 16 19 17 11 15 21 16 12 14 16 18 20 22 22 21 22 27 30 31 31 31 31 32 32 34 34 33 33 32 31 30
12 11 11 11 11 13 17 20 21 21 20 19 17 16 17 21 23 25 27 28 27 29 32 31 29 27 25 24 24 23 20 19 15 12 14 16 14 9 7 7 6 8 8 3 6 8 7 11 16 15 8 4 8 16 19 19 21 22 22 26 29 30 30 31 31 32 32 33 34 33 32 32 30 30
12 11 11 12 12 14 18 20 20 19 19 18 15 14 16 19 23 26 25 22 22 27 31 31 31 30 28 27 26 25 25 25 21 16 15 15 14 13 12 11 8 5 2 5 4 2 5 9 12 14 10 4 3 11 17 18 20 21 22 24 27 28 29 30 30 31 32 32 33 32 32 31 30 29
11 10 11 12 14 16 19 19 18 18 18 17 14 13 17 20 22 22 21 21 23 26 27 28 31 31 29 30 30 29 30 32 29 25 21 18 15 13 14 12 8 5 5 9 7 2 2 6 11 12 9 5 2 7 12 15 18 21 22 23 25 25 27 29 30 31 32 32 32 31 30 29 29 29
10 11 11 13 15 18 18 17 16 17 17 16 14 15 19 21 20 18 17 19 22 24 24 24 26 27 28 31 33 34 36 36 34 31 26 23 20 13 8 9 8 6 9 13 8 1 3 3 8 9 6 4 3 6 7 8 13 19 20 21 23 23 25 28 28 28 30 31 30 30 29 28 28 29
10 11 11 13 15 17 17 15 15 15 15 15 16 18 20 20 18 17 17 17 19 20 20 20 20 23 26 28 30 36 39 38 35 33 28 24 22 15 8 8 9 8 12 17 10 3 1 3 1 4 5 5 4 4 4 4 8 15 18 19 22 22 22 25 27 26 27 28 28 28 27 26 26 27
9 10 11 13 15 15 14 12 13 13 14 16 18 19 19 19 19 18 18 18 18 17 17 18 19 21 24 26 30 35 37 35 34 33 28 25 24 20 15 13 15 20 24 24 17 9 4 3 4 1 3 5 3 3 3 4 7 13 16 16 18 21 22 24 25 25 25 25 25 25 24 24 25 26
9 10 11 12 12 11 11 11 13 15 15 17 17 18 19 22 21 18 17 18 17 15 15 17 18 20 26 30 32 33 33 34 38 38 34 31 31 29 24 21 23 27 30 29 23 17 11 7 5 2 3 5 4 3 3 4 6 11 15 14 14 19 23 24 24 25 25 23 23 24 24 25 25 25
8 8 9 10 9 10 10 11 13 15 16 18 19 19 20 23 23 19 17 18 16 14 15 16 17 21 29 32 33 34 35 38 40 40 37 35 35 35 30 25 26 28 30 31 29 24 19 14 8 3 2 5 6 4 3 4 6 9 14 15 13 12 19 24 24 24 26 25 23 24 24 24 24 24
6 7 8 8 7 9 11 11 13 15 17 19 21 21 20 21 22 18 16 18 16 14 16 17 18 23 30 33 34 36 37 39 39 39 37 33 33 35 31 24 24 29 31 34 34 29 24 20 15 9 4 3 5 5 4 3 5 7 11 15 13 10 14 23 25 23 25 26 24 23 23 22 23 24
5 5 5 6 8 9 12 14 15 17 18 18 20 20 19 20 22 20 18 19 19 19 20 20 20 25 30 33 35 34 34 38 39 38 37 34 32 34 30 21 20 26 30 37 40 35 28 24 21 18 12 6 4 5 5 4 4 2 6 12 14 10 11 20 25 23 24 24 22 21 23 24 25 26
3 3 4 6 9 10 11 12 13 15 17 17 18 19 18 18 21 22 21 22 23 24 25 22 21 24 28 32 35 31 30 36 39 35 34 34 31 29 23 16 16 20 20 26 37 40 35 27 20 19 22 23 19 13 10 8 9 9 5 2 6 7 8 16 22 23 24 24 22 20 21 24 26 27
1 2 3 5 7 8 8 9 10 12 14 15 16 18 17 17 19 21 22 22 23 25 25 23 22 23 24 28 32 30 26 32 38 36 34 32 27 24 19 14 16 20 17 16 25 35 39 36 25 18 20 26 30 31 26 17 12 13 14 12 8 4 1 7 15 21 24 24 22 18 17 20 24 25
0 1 2 3 5 6 6 7 9 11 12 13 14 16 16 16 18 20 22 23 24 23 23 23 22 22 22 25 30 29 25 26 31 33 35 32 25 21 18 14 15 20 20 18 21 27 34 38 32 20 14 13 16 24 29 27 21 18 17 16 17 15 10 5 4 15 22 22 20 16 12 14 19 22
1 1 1 2 4 5 5 6 8 9 11 12 13 14 15 15 17 19 21 22 22 20 20 21 22 22 22 25 28 28 24 23 24 26 28 27 23 20 18 16 16 19 18 18 21 24 26 29 25 15 8 6 6 8 14 22 26 23 18 16 19 20 17 12 5 7 15 17 18 16 11 10 14 18
2 1 1 1 2 3 4 5 6 7 9 10 11 12 13 14 16 18 19 19 20 19 19 19 21 21 21 24 27 26 23 21 20 21 22 22 21 20 18 16 17 20 19 18 21 24 23 23 20 13 7 7 7 5 7 13 21 25 23 20 21 22 19 15 9 3 10 12 14 15 13 10 12 15
3 3 2 1 1 2 3 3 5 6 7 9 10 12 12 13 15 16 17 17 19 20 19 19 21 21 21 23 25 24 23 21 20 19 21 22 20 19 17 16 17 18 18 18 20 23 23 21 19 15 9 5 4 4 6 8 14 22 27 23 21 22 20 16 11 5 4 7 9 12 12 11 10 12
5 4 4 2 1 1 2 2 3 5 6 7 9 10 12 13 15 16 16 16 18 19 18 18 20 21 20 22 23 21 21 22 20 19 21 22 21 19 17 17 17 17 17 17 19 22 24 24 23 21 14 8 6 7 7 6 10 19 27 26 22 23 22 17 14 10 4 3 6 8 9 10 10 10
8 7 6 4 3 1 1 2 3 3 5 6 8 9 9 12 14 14 14 14 17 18 17 17 19 20 20 21 22 21 20 21 21 20 21 23 22 20 18 17 16 16 15 14 16 19 23 27 30 26 21 18 14 12 11 11 12 18 27 30 27 24 23 19 16 12 8 2 3 5 6 7 7 8
11 9 8 6 4 3 1 2 2 3 4 6 7 7 8 10 12 12 12 13 15 16 16 16 18 19 19 20 21 21 20 20 21 21 22 22 21 21 21 19 17 16 13 11 13 18 23 28 29 25 21 22 18 8 5 6 6 12 22 31 32 28 25 22 17 12 8 6 1 3 4 4 5 6
13 10 9 8 6 4 2 1 2 2 3 5 6 7 8 9 10 10 11 13 14 15 15 16 16 17 18 19 20 19 19 19 20 22 22 21 21 22 23 21 19 17 14 11 14 21 25 28 30 27 24 25 22 12 4 5 6 8 17 28 34 33 28 22 17 13 12 13 10 4 1 1 2 3
15 12 10 9 7 5 3 1 1 2 3 4 6 7 8 8 8 9 11 12 13 14 15 16 16 16 17 18 18 18 18 18 20 21 22 22 20 20 21 22 20 20 17 16 20 25 26 28 30 29 26 25 22 12 5 5 7 10 14 22 31 36 33 27 20 15 14 17 17 13 9 5 3 3
15 14 12 10 8 6 4 2 1 1 2 4 5 7 7 7 7 8 9 11 12 13 14 15 16 16 17 17 17 18 18 18 18 19 20 21 20 20 20 21 22 22 21 21 23 26 27 28 29 28 24 22 20 14 8 7 9 12 15 18 24 31 34 33 28 21 19 21 21 18 15 12 7 8
16 15 13 11 9 7 6 4 2 1 2 3 4 5 7 7 7 8 8 9 11 12 12 13 15 16 16 17 16 17 18 18 18 19 20 20 20 20 21 22 22 23 23 23 23 24 25 26 27 26 24 23 21 18 15 12 12 13 16 18 20 23 26 30 30 25 23 25 25 20 16 17 13 9
Wind_Direction
303 302 303 304 301 300 300 299 298 299 299 298 297 295 294 294 298 301 298 297 297 299 300 298 299 302 302 303 303 301 299 297 297 298 296 294 292 290 290 289 288 288 287 286 283 281 280 277 276 275 274 275 273 273 274 270 265 263 263 266 265 265 268 268 263 266 288 294 254 218 211 210 206 205
303 305 305 303 301 301 301 301 301 300 298 297 296 295 293 291 290 293 296 293 292 296 298 295 296 301 302 301 300 298 296 296 295 295 293 292 290 289 289 288 286 286 284 283 281 278 277 275 272 272 270 271 271 269 269 268 264 260 260 264 264 266 269 266 263 263 278 300 276 221 209 211 206 201
304 305 304 301 301 303 304 305 303 300 297 296 296 295 292 290 286 285 288 287 287 291 295 296 296 298 299 298 297 296 294 294 294 293 291 290 290 289 289 287 284 283 281 281 279 276 274 272 269 268 267 267 268 267 266 264 262 258 257 261 262 262 268 266 263 262 268 289 282 225 207 211 210 204
303 303 302 300 302 305 305 305 303 299 297 296 296 294 290 288 284 282 281 280 285 289 291 294 296 297 298 297 296 295 294 294 292 291 290 289 290 289 287 286 283 280 279 278 277 274 271 269 267 264 263 263 264 264 263 259 257 257 254 256 260 258 263 265 262 263 265 277 282 238 208 208 209 205
302 301 302 302 302 303 303 303 301 298 297 296 294 292 289 287 284 283 282 281 286 290 290 292 293 295 296 294 293 293 293 293 292 291 290 288 288 287 286 285 282 279 277 276 276 274 270 268 265 262 259 259 260 260 261 257 252 253 252 252 255 254 257 261 257 261 265 270 276 259 219 207 206 202
301 301 302 301 300 302 302 302 301 299 297 295 292 291 289 287 285 283 283 283 286 291 292 292 292 293 293 291 292 292 291 292 292 292 291 290 287 285 284 283 281 279 277 275 275 273 271 267 264 260 256 254 256 257 257 255 250 247 247 249 251 250 252 257 252 252 260 264 269 269 244 212 205 203
301 303 301 298 298 303 303 301 301 300 297 294 291 290 290 289 288 287 285 283 284 289 292 293 293 293 293 290 291 292 290 290 291 291 290 288 286 284 282 281 280 278 276 274 274 273 270 267 262 258 254 250 251 254 253 251 249 244 242 243 247 247 248 253 252 247 249 257 262 263 257 231 208 201
303 303 298 294 297 303 303 300 301 300 296 294 292 291 291 290 289 288 286 283 283 286 290 292 291 292 292 290 290 292 291 289 288 287 287 286 285 283 281 280 278 277 276 274 272 272 269 266 262 256 253 249 247 250 250 247 245 242 239 240 242 244 246 248 251 247 244 248 254 255 253 245 225 203
302 298 291 291 296 299 299 300 300 299 297 294 291 289 289 287 284 285 286 286 284 284 286 290 291 290 290 290 289 289 288 287 287 285 285 285 284 284 282 280 278 277 277 274 270 270 268 264 260 254 250 248 245 247 246 243 243 241 239 238 238 240 242 244 246 247 243 242 248 253 248 240 236 220
299 292 287 288 291 293 294 296 297 296 295 294 291 290 289 287 286 287 290 290 288 286 286 288 290 290 288 287 285 284 283 285 287 289 289 286 284 283 282 279 278 276 275 272 267 265 266 265 262 255 248 245 244 244 242 239 240 240 238 236 235 235 238 241 243 243 240 236 236 243 243 235 233 230
295 289 286 284 285 290 294 295 295 294 294 295 294 293 292 293 295 294 293 292 291 290 288 285 286 286 284 283 282 284 283 282 284 286 289 288 285 283 281 279 281 279 277 275 269 261 260 262 261 257 251 246 242 240 239 238 238 238 238 235 233 232 234 237 239 239 237 233 228 229 234 232 229 227
294 290 288 285 286 292 297 297 296 295 297 298 298 299 300 300 298 295 294 296 295 291 286 283 283 284 284 282 282 283 283 280 280 282 286 289 288 287 284 281 281 280 279 279 275 266 258 256 255 253 250 247 242 238 235 234 234 235 235 235 232 230 231 234 236 237 235 233 229 227 228 229 228 226
295 294 293 290 291 296 299 299 299 299 301 303 304 306 307 304 300 296 299 302 296 289 285 283 283 283 282 282 283 283 282 281 284 287 286 286 286 286 285 281 277 275 274 275 275 268 258 251 248 244 240 240 239 238 236 233 231 231 231 232 231 229 229 231 232 234 235 233 231 229 228 228 229 229
297 298 296 295 298 302 301 302 305 305 307 309 309 309 309 309 311 310 305 301 294 288 286 284 284 284 280 280 282 282 282 283 285 285 284 283 284 284 282 280 276 270 267 268 269 267 257 247 241 235 232 232 232 233 235 234 232 230 229 229 229 227 228 230 230 231 232 233 232 231 230 229 230 231
299 300 300 302 304 305 306 308 310 313 315 314 311 311 311 313 314 311 304 300 295 290 287 284 283 282 278 280 282 281 284 285 283 282 282 281 282 283 279 281 280 270 261 258 261 261 254 243 236 230 226 226 226 226 230 234 234 233 231 229 228 226 226 228 230 230 231 232 233 232 231 230 229 231
301 301 304 306 305 306 310 309 313 321 323 318 313 313 314 313 311 308 303 300 298 294 290 287 284 281 281 284 283 281 283 285 284 282 280 278 277 276 272 273 275 272 269 270 269 262 250 237 232 230 225 222 224 225 227 232 235 234 232 230 228 226 226 227 228 229 230 230 232 232 231 231 230 230
300 303 307 307 306 309 310 310 320 326 324 319 316 316 315 313 310 309 307 304 300 296 292 289 285 283 284 283 281 280 284 285 283 280 276 274 272 270 267 268 272 272 274 279 283 276 253 234 226 228 226 221 223 224 225 230 233 233 232 230 229 227 225 226 227 227 228 228 229 230 230 230 231 230
300 305 307 305 307 309 308 316 326 326 321 319 321 318 315 313 311 310 310 307 302 297 293 288 285 284 283 280 279 280 278 274 272 269 269 270 269 267 270 271 271 272 270 266 276 288 263 235 220 224 224 219 221 222 221 224 229 232 232 229 229 228 226 225 225 224 225 225 226 228 229 229 230 231
300 304 306 305 306 306 307 316 323 324 323 324 323 318 314 314 314 312 311 311 311 308 301 292 288 287 284 281 280 280 276 271 270 269 270 272 271 271 272 270 268 268 266 254 241 275 270 239 215 213 219 217 219 220 219 222 225 230 234 230 226 227 226 225 225 223 223 223 224 227 228 229 230 230
300 304 307 307 306 303 304 313 322 326 328 327 323 318 315 315 316 317 316 318 320 318 313 307 301 298 295 292 290 290 288 286 285 283 279 273 269 266 264 265 264 263 264 250 221 230 269 243 212 201 211 214 218 218 215 220 226 229 232 229 224 223 224 224 224 223 223 223 223 226 228 229 230 230
300 304 306 307 307 304 303 313 325 331 332 329 323 319 317 317 319 322 323 326 327 324 321 319 316 315 312 309 308 308 305 303 300 295 287 274 269 263 253 255 258 258 263 251 222 217 248 231 202 192 204 210 215 217 213 217 226 231 231 226 222 221 221 222 223 223 223 222 223 225 226 227 228 229
300 301 304 307 306 303 309 320 329 334 334 331 325 320 319 319 321 324 327 329 330 330 331 332 331 330 327 325 328 328 322 318 314 302 286 278 277 273 258 258 267 264 263 246 217 213 224 203 185 180 194 205 208 213 215 219 225 231 230 224 221 220 220 221 222 222 223 222 222 223 224 224 225 225
300 300 305 309 305 307 317 326 331 335 335 332 326 321 319 319 322 325 326 325 324 328 334 338 339 340 341 343 347 346 340 336 328 302 285 280 273 269 267 268 276 268 259 228 197 211 203 177 172 170 166 179 203 206 212 219 223 227 225 220 219 219 218 218 220 220 221 221 221 222 222 222 222 221
302 305 310 309 307 313 323 329 333 336 336 333 328 321 321 322 323 323 323 321 322 326 331 335 339 342 345 348 351 351 351 353 348 331 316 301 280 265 258 261 269 266 297 14 9 248 188 168 170 172 171 164 179 193 203 211 215 219 219 214 214 216 215 215 217 218 220 221 221 221 222 221 221 220
303 309 312 310 312 319 325 332 336 337 336 336 331 323 325 327 325 324 324 327 333 336 335 337 340 342 344 348 351 353 353 355 355 351 347 341 322 288 265 271 289 292 334 3 14 351 250 188 175 171 181 196 153 161 185 199 205 209 211 210 209 210 210 210 213 215 217 219 220 221 223 222 221 221
298 303 308 311 315 320 326 333 339 339 339 339 333 329 332 333 332 332 331 330 336 339 335 332 335 338 341 345 350 353 354 356 359 0 0 360 356 339 303 312 322 307 337 3 23 22 307 237 177 162 173 200 167 146 162 186 198 202 205 207 207 207 206 207 209 212 213 215 218 220 222 223 222 224
291 301 311 313 314 320 327 336 342 345 344 339 337 338 341 341 342 346 346 339 335 336 335 332 333 336 339 340 344 350 353 355 359 4 6 5 7 14 18 5 357 1 16 24 37 77 310 306 190 146 164 189 179 160 158 162 180 189 197 202 203 205 206 206 206 208 210 212 215 217 220 223 225 226
296 307 316 314 313 321 331 340 350 359 357 346 343 345 349 355 358 357 353 346 339 337 340 340 336 335 337 338 342 347 351 354 359 5 8 9 15 26 36 30 26 32 37 38 41 53 56 6 2 66 176 192 187 185 183 156 157 173 182 189 196 202 207 208 209 209 209 210 212 213 215 219 222 224
306 309 314 312 314 327 341 352 1 9 6 354 348 351 357 6 8 0 350 347 345 343 344 340 332 333 339 344 347 350 354 0 5 7 9 13 20 26 29 32 34 35 36 38 40 46 51 37 11 339 228 211 213 225 191 155 156 171 175 177 187 199 204 207 209 210 209 209 210 210 212 215 217 219
307 308 316 320 327 343 355 359 359 2 2 359 359 3 4 5 6 0 350 349 346 338 337 334 329 335 346 352 356 360 5 8 8 9 9 12 16 19 21 27 30 28 31 36 38 39 40 40 38 15 287 228 215 224 202 141 143 169 179 180 178 188 201 205 206 207 207 209 211 211 213 216 217 219
315 317 323 329 341 357 7 9 5 4 5 3 4 7 4 0 2 360 351 350 347 337 334 333 332 343 353 358 2 6 8 9 9 10 10 10 11 14 18 24 23 19 23 31 35 37 37 39 45 41 357 254 212 205 196 154 143 167 184 185 178 179 198 203 203 206 206 207 211 213 216 219 219 220
323 328 335 349 4 9 10 10 7 5 5 3 1 3 360 355 359 1 357 356 357 352 347 342 339 349 358 2 4 6 7 8 10 11 11 11 11 14 20 27 19 11 15 22 26 30 37 41 46 49 49 65 135 168 158 103 70 122 182 191 193 198 198 196 200 205 204 202 203 209 213 216 217 218
325 340 349 357 6 6 360 359 357 355 356 356 356 360 358 353 357 1 0 358 357 355 354 348 343 349 356 1 4 4 2 7 10 11 11 12 11 12 18 23 15 9 8 9 12 18 25 33 46 57 63 68 73 82 95 75 36 27 45 147 197 208 202 197 199 200 197 195 195 199 206 212 214 218
338 356 348 349 358 356 350 352 352 348 348 346 346 352 355 352 354 357 357 356 355 354 354 350 347 350 351 355 1 1 356 1 8 11 13 13 10 8 9 10 9 10 7 1 3 9 15 20 29 44 57 64 66 62 60 57 37 25 30 34 29 18 229 205 203 199 194 193 194 193 198 207 211 217
34 10 357 349 356 350 346 354 353 346 345 342 339 344 349 350 353 355 355 355 353 352 352 352 353 354 352 353 358 359 353 353 1 8 12 13 10 6 6 6 5 5 5 5 4 6 12 16 19 22 31 50 62 56 49 46 40 27 23 25 20 10 359 349 224 201 195 192 191 189 190 202 209 214
194 43 31 355 355 351 346 353 353 346 344 343 340 341 344 348 352 353 352 352 352 351 352 352 355 356 356 356 359 359 356 352 353 360 6 7 4 2 3 5 4 1 3 7 4 4 11 14 15 17 18 23 48 52 39 39 40 34 20 10 8 3 355 352 343 208 198 194 190 189 190 198 205 211
206 170 113 10 351 350 343 344 348 346 343 342 340 341 342 343 347 351 352 354 357 358 356 355 357 358 357 358 0 0 358 355 353 357 360 360 1 2 1 0 1 359 360 4 5 7 11 12 13 18 16 11 27 31 357 9 26 31 24 6 355 356 354 349 342 252 207 204 199 197 197 199 203 211
205 183 163 165 336 350 342 334 338 343 343 340 340 343 345 346 348 352 356 358 1 1 358 357 360 0 359 1 2 359 356 355 356 359 0 359 1 2 356 354 356 354 353 360 5 9 12 13 14 18 20 22 29 11 345 344 358 13 21 15 358 355 359 354 342 318 222 213 213 210 206 204 206 215
202 187 175 179 204 316 346 338 332 339 342 341 342 345 348 350 352 354 357 359 2 3 1 358 360 1 2 4 3 1 0 2 2 360 358 358 0 358 353 353 354 350 350 358 2 5 10 11 7 1 356 346 314 300 298 286 305 341 7 18 12 3 4 359 346 339 330 205 203 206 204 205 212 220
208 198 184 180 190 213 330 345 339 343 346 346 347 349 349 350 353 354 355 357 360 2 1 359 1 3 4 5 5 5 6 8 7 3 359 360 1 358 353 353 352 350 353 359 359 1 3 2 359 354 346 338 327 304 287 279 293 330 357 14 21 18 14 8 357 344 337 322 196 191 188 192 204 215
208 202 192 188 189 197 233 338 351 360 357 349 349 354 355 354 354 352 353 356 0 2 2 2 3 5 6 6 7 8 6 7 7 5 2 2 2 1 1 1 357 356 360 1 355 354 355 356 360 4 3 1 5 2 319 317 328 337 348 1 15 25 26 23 17 5 353 356 335 213 195 179 188 202
207 203 200 195 191 194 208 303 9 20 9 357 360 10 9 0 355 354 357 2 5 7 6 5 5 6 7 8 10 10 8 6 5 4 4 4 3 4 9 9 1 355 357 355 349 350 354 1 8 14 18 17 20 28 22 356 352 338 338 350 6 19 28 31 32 33 33 31 28 17 332 230 192 184
207 206 205 200 194 196 199 193 33 29 17 10 17 24 20 7 1 1 3 4 7 9 9 7 6 7 8 9 10 12 10 8 5 5 6 6 5 4 6 5 2 360 359 354 352 355 2 8 12 15 19 19 17 17 9 345 347 350 345 346 357 8 16 24 33 44 43 31 24 18 6 335 282 267
209 209 208 202 198 198 195 188 138 47 25 18 23 26 23 17 13 10 5 3 7 13 12 8 7 9 9 9 10 11 11 9 8 6 6 6 7 7 5 3 2 5 3 357 356 1 6 10 13 18 21 17 10 4 351 339 348 358 354 347 351 360 5 10 18 25 26 21 19 18 12 358 322 287
212 211 210 205 202 200 198 191 173 124 44 26 27 25 20 19 19 16 7 3 9 15 14 9 10 12 11 9 8 7 7 9 10 9 9 8 7 8 8 6 4 4 5 2 359 360 3 7 13 18 19 16 13 8 359 352 355 1 358 354 354 354 355 359 3 3 2 5 12 17 15 8 358 330